Location: Newark
(48.8833°N, 0.9236°W)
Time: 00:32:35
(UTC+00:00)

Explorer 7 - Visible Passes

Search period start: 13 November 2019 00:00
Search period end: 23 November 2019 00:00
Orbit: 485 x 680 km, 50.3° (Epoch: 12 November)

Date Brightness Start Highest point End Pass type
(mag) Time Alt. Az. Time Alt. Az. Time Alt. Az.
13 Nov 9.5 03:43:47 17° ENE 03:43:47 17° ENE 03:44:48 10° ENE visible
13 Nov 6.8 05:20:06 42° WNW 05:21:22 71° N 05:25:18 10° E visible
14 Nov 9.4 03:48:37 19° ENE 03:48:37 19° ENE 03:49:47 10° ENE visible
14 Nov 6.7 05:24:56 38° WNW 05:26:23 73° N 05:30:19 10° E visible
15 Nov 9.3 03:53:27 20° ENE 03:53:27 20° ENE 03:54:47 10° ENE visible
15 Nov 6.7 05:29:47 35° WNW 05:31:24 81° N 05:35:20 10° E visible
16 Nov 9.2 03:58:18 22° ENE 03:58:18 22° ENE 03:59:47 10° E visible
16 Nov 6.7 05:34:37 33° WNW 05:36:23 85° SSW 05:40:18 10° ESE visible
17 Nov 9.0 04:03:09 24° E 04:03:09 24° E 04:04:48 10° E visible
17 Nov 6.8 05:39:28 30° W 05:41:21 67° SSW 05:45:13 10° ESE visible
18 Nov 8.9 04:08:02 26° E 04:08:02 26° E 04:09:49 10° E visible
18 Nov 7.1 05:44:21 27° W 05:46:14 49° SSW 05:50:01 10° SE visible
19 Nov 8.8 04:12:57 27° E 04:12:57 27° E 04:14:49 10° ESE visible
19 Nov 7.6 05:49:17 23° W 05:51:05 35° SSW 05:54:40 10° SSE visible
20 Nov 8.7 04:17:55 27° ESE 04:17:55 27° ESE 04:19:47 10° ESE visible
20 Nov 8.1 05:54:15 19° WSW 05:55:51 24° SW 05:59:04 10° SSE visible
21 Nov 8.8 04:22:56 24° SE 04:22:56 24° SE 04:24:39 10° SE visible
21 Nov 8.6 05:59:17 15° WSW 06:00:34 17° SW 06:03:06 10° S visible
22 Nov 8.9 04:28:03 20° SE 04:28:03 20° SE 04:29:25 10° SE visible
22 Nov 9.0 06:04:23 10° WSW 06:05:12 11° SW 06:06:06 10° SW visible
